TimeEST,TemperatureF,Dew PointF,Humidity,Sea Level PressureIn,VisibilityMPH,Wind Direction,Wind SpeedMPH,Gust SpeedMPH,PrecipitationIn,Events,Conditions,WindDirDegrees,DateUTC
12:58 AM,57.6,49.5,74,30.18,10.0,NNW,19.6,28.8,N/A,,Mostly Cloudy,340,2014-01-07 05:58:00
1:58 AM,55.8,36.1,48,30.20,10.0,North,21.9,32.2,N/A,,Overcast,10,2014-01-07 06:58:00
2:58 AM,54.1,36.5,51,30.20,10.0,North,20.7,28.8,N/A,,Mostly Cloudy,10,2014-01-07 07:58:00
3:58 AM,53.2,31.6,44,30.21,10.0,North,17.3,26.5,N/A,,Overcast,10,2014-01-07 08:58:00
4:58 AM,52.7,30.6,43,30.25,10.0,North,13.8,-,N/A,,Overcast,350,2014-01-07 09:58:00
4:59 AM,53.6,32.0,44,30.24,10.0,North,13.8,-,N/A,,Light Drizzle,360,2014-01-07 09:59:00
5:18 AM,51.8,37.4,58,30.23,10.0,NNW,16.1,-,N/A,,Mostly Cloudy,330,2014-01-07 10:18:00
5:58 AM,51.6,34.5,52,30.25,10.0,NNW,15.0,-,0.00,,Overcast,340,2014-01-07 10:58:00
6:58 AM,50.7,32.4,49,30.26,10.0,North,18.4,23.0,N/A,,Overcast,360,2014-01-07 11:58:00
7:58 AM,50.2,34.3,55,30.28,10.0,North,15.0,-,N/A,,Overcast,350,2014-01-07 12:58:00
8:58 AM,51.1,37.8,60,30.29,10.0,North,16.1,-,N/A,,Scattered Clouds,10,2014-01-07 13:58:00
9:51 AM,53.6,41.0,62,30.29,10.0,North,15.0,-,N/A,,Partly Cloudy,360,2014-01-07 14:51:00
9:58 AM,53.6,41.0,62,30.30,10.0,North,12.7,-,0.00,,Partly Cloudy,350,2014-01-07 14:58:00
10:44 AM,53.6,41.0,62,30.27,10.0,North,13.8,-,N/A,,Light Drizzle,350,2014-01-07 15:44:00
10:53 AM,53.6,41.0,62,30.27,10.0,North,17.3,23.0,N/A,,Scattered Clouds,350,2014-01-07 15:53:00
10:58 AM,53.6,41.0,62,30.28,10.0,North,18.4,23.0,0.00,,Scattered Clouds,350,2014-01-07 15:58:00
11:13 AM,55.4,42.8,63,30.27,10.0,North,15.0,25.3,N/A,,Mostly Cloudy,350,2014-01-07 16:13:00
11:38 AM,55.4,42.8,63,30.25,10.0,NNW,13.8,-,N/A,,Overcast,340,2014-01-07 16:38:00
11:43 AM,57.2,42.8,59,30.25,10.0,North,15.0,-,N/A,,Mostly Cloudy,350,2014-01-07 16:43:00
11:58 AM,56.1,43.9,64,30.25,10.0,NNW,17.3,-,N/A,,Mostly Cloudy,330,2014-01-07 16:58:00
12:04 PM,55.4,42.8,63,30.24,10.0,NNW,16.1,-,N/A,,Overcast,340,2014-01-07 17:04:00
12:08 PM,55.4,42.8,63,30.24,10.0,North,12.7,-,N/A,,Mostly Cloudy,350,2014-01-07 17:08:00
12:12 PM,55.4,44.6,67,30.23,10.0,NNW,13.8,-,N/A,,Overcast,340,2014-01-07 17:12:00
12:18 PM,55.4,44.6,67,30.23,10.0,North,15.0,-,N/A,,Overcast,350,2014-01-07 17:18:00
12:26 PM,55.4,44.6,67,30.22,10.0,North,18.4,-,N/A,,Overcast,360,2014-01-07 17:26:00
12:28 PM,57.2,44.6,63,30.22,10.0,North,18.4,-,N/A,,Overcast,350,2014-01-07 17:28:00
12:31 PM,57.2,44.6,63,30.21,10.0,North,18.4,-,N/A,,Overcast,350,2014-01-07 17:31:00
12:33 PM,57.2,44.6,63,30.22,10.0,North,16.1,-,N/A,,Overcast,360,2014-01-07 17:33:00
12:58 PM,57.2,45.0,64,30.22,10.0,North,18.4,24.2,N/A,,Overcast,350,2014-01-07 17:58:00
1:58 PM,56.3,45.1,66,30.21,10.0,North,17.3,25.3,N/A,,Overcast,350,2014-01-07 18:58:00
2:43 PM,55.4,44.6,67,30.20,10.0,North,18.4,26.5,N/A,Rain,Light Rain,360,2014-01-07 19:43:00
2:58 PM,55.6,46.4,71,30.22,10.0,North,19.6,-,0.00,,Light Drizzle,350,2014-01-07 19:58:00
3:02 PM,55.4,46.4,72,30.21,10.0,North,19.6,-,N/A,,Overcast,360,2014-01-07 20:02:00
3:31 PM,55.4,46.4,72,30.22,10.0,North,18.4,23.0,N/A,Rain,Light Rain,350,2014-01-07 20:31:00
3:40 PM,55.4,46.4,72,30.22,10.0,North,17.3,24.2,N/A,,Overcast,360,2014-01-07 20:40:00
3:58 PM,55.2,47.7,76,30.23,10.0,North,17.3,24.2,0.00,,Overcast,360,2014-01-07 20:58:00
4:01 PM,55.4,48.2,77,30.22,10.0,North,12.7,24.2,N/A,,Light Drizzle,360,2014-01-07 21:01:00
4:11 PM,55.4,48.2,77,30.22,10.0,North,13.8,-,N/A,,Overcast,350,2014-01-07 21:11:00
4:14 PM,55.4,48.2,77,30.22,10.0,North,12.7,-,N/A,,Light Drizzle,350,2014-01-07 21:14:00
4:18 PM,55.4,48.2,77,30.22,10.0,North,13.8,-,N/A,,Overcast,360,2014-01-07 21:18:00
4:58 PM,56.1,48.4,75,30.23,10.0,North,12.7,-,0.00,,Overcast,350,2014-01-07 21:58:00
4:59 PM,55.4,48.2,77,30.22,10.0,North,13.8,-,N/A,,Light Drizzle,350,2014-01-07 21:59:00
5:40 PM,57.2,50.0,77,30.22,10.0,North,12.7,23.0,N/A,,Overcast,350,2014-01-07 22:40:00
5:58 PM,56.7,50.5,80,30.24,10.0,North,19.6,-,0.00,,Overcast,360,2014-01-07 22:58:00
6:28 PM,57.2,50.0,77,30.23,10.0,North,16.1,26.5,N/A,,Overcast,360,2014-01-07 23:28:00
6:58 PM,56.5,50.2,79,30.26,10.0,North,13.8,25.3,N/A,,Overcast,350,2014-01-07 23:58:00
7:49 PM,55.4,50.0,82,30.26,10.0,North,13.8,-,N/A,,Overcast,360,2014-01-08 00:49:00
7:58 PM,56.1,50.0,80,30.27,10.0,North,15.0,23.0,N/A,,Mostly Cloudy,360,2014-01-08 00:58:00
8:03 PM,55.4,50.0,82,30.26,10.0,North,13.8,23.0,N/A,,Overcast,360,2014-01-08 01:03:00
8:08 PM,55.4,50.0,82,30.27,10.0,North,12.7,-,N/A,,Mostly Cloudy,360,2014-01-08 01:08:00
8:18 PM,55.4,50.0,82,30.27,10.0,North,17.3,-,N/A,,Mostly Cloudy,360,2014-01-08 01:18:00
8:33 PM,55.4,50.0,82,30.27,10.0,NNW,12.7,-,N/A,,Mostly Cloudy,340,2014-01-08 01:33:00
8:48 PM,55.4,48.2,77,30.27,10.0,NNW,13.8,-,N/A,,Mostly Cloudy,340,2014-01-08 01:48:00
8:58 PM,54.7,49.1,81,30.29,10.0,North,11.5,-,N/A,,Mostly Cloudy,360,2014-01-08 01:58:00
9:08 PM,53.6,48.2,82,30.28,10.0,North,12.7,-,N/A,,Overcast,350,2014-01-08 02:08:00
9:58 PM,53.4,47.7,81,30.29,10.0,North,13.8,-,N/A,,Mostly Cloudy,350,2014-01-08 02:58:00
10:13 PM,53.6,48.2,82,30.29,10.0,NNW,15.0,-,N/A,,Mostly Cloudy,340,2014-01-08 03:13:00
10:18 PM,53.6,48.2,82,30.29,10.0,North,13.8,-,N/A,,Overcast,350,2014-01-08 03:18:00
10:58 PM,51.8,48.2,88,30.30,10.0,North,15.0,-,N/A,,Overcast,350,2014-01-08 03:58:00
11:58 PM,51.8,47.8,86,30.28,10.0,North,10.4,-,N/A,,Overcast,350,2014-01-08 04:58:00